TimeEST,TemperatureF,Dew PointF,Humidity,Sea Level PressureIn,VisibilityMPH,Wind Direction,Wind SpeedMPH,Gust SpeedMPH,PrecipitationIn,Events,Conditions,WindDirDegrees,DateUTC
12:15 AM,37.4,26.6,65,30.00,10.0,ESE,4.6,-,N/A,,Overcast,120,2013-03-06 05:15:00
12:35 AM,37.4,26.6,65,30.01,10.0,ESE,4.6,-,N/A,,Overcast,120,2013-03-06 05:35:00
12:55 AM,37.4,26.6,65,30.00,10.0,SE,6.9,-,N/A,,Overcast,130,2013-03-06 05:55:00
1:15 AM,37.4,26.6,65,30.01,10.0,ESE,4.6,-,N/A,,Overcast,120,2013-03-06 06:15:00
1:35 AM,37.4,26.6,65,30.01,10.0,East,3.5,-,N/A,,Overcast,100,2013-03-06 06:35:00
2:15 AM,35.6,26.6,70,29.99,10.0,ENE,4.6,-,N/A,,Overcast,70,2013-03-06 07:15:00
2:35 AM,35.6,26.6,70,29.98,10.0,ENE,4.6,-,N/A,,Overcast,60,2013-03-06 07:35:00
2:55 AM,35.6,26.6,70,29.98,10.0,ENE,4.6,-,N/A,,Overcast,70,2013-03-06 07:55:00
3:35 AM,35.6,26.6,70,29.97,10.0,East,5.8,-,N/A,,Overcast,80,2013-03-06 08:35:00
3:55 AM,35.6,26.6,70,29.97,10.0,ENE,8.1,-,N/A,,Overcast,70,2013-03-06 08:55:00
4:15 AM,35.6,26.6,70,29.97,10.0,ENE,12.7,18.4,N/A,,Overcast,70,2013-03-06 09:15:00
4:55 AM,35.6,26.6,70,29.96,10.0,ENE,10.4,16.1,N/A,,Overcast,70,2013-03-06 09:55:00
5:15 AM,35.6,26.6,70,29.96,10.0,ENE,8.1,18.4,N/A,,Mostly Cloudy,60,2013-03-06 10:15:00
5:35 AM,35.6,26.6,70,29.96,10.0,ENE,11.5,18.4,N/A,,Overcast,60,2013-03-06 10:35:00
5:45 AM,35.6,26.6,70,29.96,10.0,East,11.5,18.4,N/A,,Overcast,80,2013-03-06 10:45:00
6:10 AM,35.6,28.4,75,29.96,3.0,ENE,11.5,17.3,N/A,Snow,Light Snow,70,2013-03-06 11:10:00
6:45 AM,35.6,28.4,75,29.96,9.0,East,11.5,18.4,N/A,,Overcast,80,2013-03-06 11:45:00
7:45 AM,35.6,28.4,75,29.95,9.0,East,11.5,20.7,N/A,,Overcast,80,2013-03-06 12:45:00
8:45 AM,35.6,28.4,75,29.95,9.0,East,13.8,28.8,N/A,,Overcast,80,2013-03-06 13:45:00
9:05 AM,35.6,30.2,81,29.96,5.0,East,12.7,23.0,N/A,Rain,Light Rain,90,2013-03-06 14:05:00
9:30 AM,35.6,30.2,81,29.96,3.0,East,11.5,19.6,N/A,Rain,Light Rain,90,2013-03-06 14:30:00
10:45 AM,37.4,30.2,75,29.94,5.0,ENE,13.8,20.7,N/A,Rain,Light Rain,70,2013-03-06 15:45:00
11:50 AM,37.4,30.2,75,29.95,5.0,East,13.8,25.3,N/A,,Overcast,80,2013-03-06 16:50:00
12:19 PM,37.4,28.4,70,29.93,4.0,ENE,11.5,29.9,N/A,Snow,Light Snow,70,2013-03-06 17:19:00
12:45 PM,37.4,30.2,75,29.92,8.0,East,13.8,25.3,N/A,,Overcast,90,2013-03-06 17:45:00
1:15 PM,35.6,28.4,75,29.93,2.0,ENE,13.8,25.3,N/A,Snow,Light Snow,60,2013-03-06 18:15:00
1:45 PM,37.4,26.6,65,29.92,10.0,ENE,11.5,20.7,N/A,,Overcast,70,2013-03-06 18:45:00
2:45 PM,37.4,26.6,65,29.92,10.0,ENE,17.3,28.8,N/A,,Overcast,60,2013-03-06 19:45:00
3:45 PM,37.4,26.6,65,29.91,10.0,ENE,17.3,28.8,N/A,,Overcast,60,2013-03-06 20:45:00
5:45 PM,35.6,26.6,70,29.94,10.0,NE,19.6,34.5,N/A,,Overcast,50,2013-03-06 22:45:00
6:45 PM,35.6,26.6,70,29.96,10.0,NE,21.9,32.2,N/A,,Overcast,50,2013-03-06 23:45:00
7:45 PM,33.8,24.8,70,29.95,10.0,NE,21.9,35.7,N/A,,Overcast,50,2013-03-07 00:45:00
8:45 PM,33.8,24.8,70,29.96,7.0,NE,21.9,29.9,N/A,,Overcast,50,2013-03-07 01:45:00
9:35 PM,33.8,24.8,70,29.95,10.0,NE,17.3,40.3,N/A,,Overcast,40,2013-03-07 02:35:00
9:55 PM,33.8,24.8,70,29.95,10.0,NE,19.6,35.7,N/A,,Overcast,40,2013-03-07 02:55:00
10:15 PM,33.8,24.8,70,29.94,10.0,NE,21.9,33.4,N/A,,Overcast,40,2013-03-07 03:15:00
10:55 PM,33.8,24.8,70,29.94,10.0,NE,24.2,33.4,N/A,,Overcast,50,2013-03-07 03:55:00
11:15 PM,33.8,24.8,70,29.94,10.0,NE,24.2,33.4,N/A,,Overcast,40,2013-03-07 04:15:00
11:35 PM,33.8,24.8,70,29.94,9.0,NE,21.9,36.8,N/A,,Overcast,50,2013-03-07 04:35:00
11:55 PM,33.8,24.8,70,29.94,10.0,NE,16.1,34.5,N/A,,Overcast,40,2013-03-07 04:55:00